Main page
METAR-TAF:

METAR-TAF

Airports :

Oil platform

Ula, Norway

latitude: 59-06-39N, longitude: 2-50-45E, elevation: 0 m

Current weather observation

The report was made 24 minutes ago, at 01:20 UTC
Wind 14 kt from the South/Southwest
Temperature 5°C
Humidity 70%
Pressure 1013 hPa

METAR: ENLA 200120Z AUTO 20014KT //// BKN026/// BKN110/// 05/00 Q1013 W///S4

Time: 02:44 (01:44 UTC)


TAF: missing

Weather observations and forecasts of more than 4000 airports (METAR and TAF reports).

The available stations are represented by yellow and red dots on the map.

Hover mouse over dot to see the name of the station.

Then click to see weather observations and forecasts.

To change the map : click on the green buttons with a black cross to zoom in, on the green button with a dash to zoom out, or on the green arrows for adjacent maps.


METAR-TAF: